Year,Month,Day,Hour,Minute,Value (Times are PST for temperature in C)
2021,06,28,00,00,24.90
2021,06,28,00,01,24.90
2021,06,28,00,02,24.80
2021,06,28,00,03,24.80
2021,06,28,00,04,24.80
2021,06,28,00,05,24.80
2021,06,28,00,06,24.80
2021,06,28,00,07,24.80
2021,06,28,00,08,24.80
2021,06,28,00,09,24.70
2021,06,28,00,10,24.70
2021,06,28,00,11,24.70
2021,06,28,00,12,24.70
2021,06,28,00,13,24.70
2021,06,28,00,14,24.70
2021,06,28,00,15,24.70
2021,06,28,00,16,24.70
2021,06,28,00,17,24.70
2021,06,28,00,18,24.70
2021,06,28,00,19,24.70
2021,06,28,00,20,24.70
2021,06,28,00,21,24.60
2021,06,28,00,22,24.60
2021,06,28,00,23,24.60
2021,06,28,00,24,24.60
2021,06,28,00,25,24.60
2021,06,28,00,26,24.60
2021,06,28,00,27,24.60
2021,06,28,00,28,24.60
2021,06,28,00,29,24.60
2021,06,28,00,30,24.50
2021,06,28,00,31,24.50
2021,06,28,00,32,24.50
2021,06,28,00,33,24.50
2021,06,28,00,34,24.50
2021,06,28,00,35,24.50
2021,06,28,00,36,24.50
2021,06,28,00,37,24.40
2021,06,28,00,38,24.40
2021,06,28,00,39,24.40
2021,06,28,00,40,24.40
2021,06,28,00,41,24.40
2021,06,28,00,42,24.40
2021,06,28,00,43,24.40
2021,06,28,00,44,24.30
2021,06,28,00,45,24.30
2021,06,28,00,46,24.30
2021,06,28,00,47,24.30
2021,06,28,00,48,24.30
2021,06,28,00,49,24.30
2021,06,28,00,50,24.20
2021,06,28,00,51,24.20
2021,06,28,00,52,24.20
2021,06,28,00,53,24.20
2021,06,28,00,54,24.20
2021,06,28,00,55,24.10
2021,06,28,00,56,24.10
2021,06,28,00,57,24.10
2021,06,28,00,58,24.10
2021,06,28,00,59,24.10
2021,06,28,01,00,24.10
2021,06,28,01,01,24.10
2021,06,28,01,02,24.10
2021,06,28,01,03,24.10
2021,06,28,01,04,24.10
2021,06,28,01,05,24.10
2021,06,28,01,06,24.10
2021,06,28,01,07,24.10
2021,06,28,01,08,24.10
2021,06,28,01,09,24.10
2021,06,28,01,10,24.10
2021,06,28,01,11,24.10
2021,06,28,01,12,24.10
2021,06,28,01,13,24.10
2021,06,28,01,14,24.10
2021,06,28,01,15,24.10
2021,06,28,01,16,24.00
2021,06,28,01,17,24.00
2021,06,28,01,18,23.90
2021,06,28,01,19,23.90
2021,06,28,01,20,23.90
2021,06,28,01,21,23.90
2021,06,28,01,22,23.80
2021,06,28,01,23,23.80
2021,06,28,01,24,23.80
2021,06,28,01,25,23.80
2021,06,28,01,26,23.80
2021,06,28,01,27,23.80
2021,06,28,01,28,23.80
2021,06,28,01,29,23.80
2021,06,28,01,30,23.80
2021,06,28,01,31,23.80
2021,06,28,01,32,23.80
2021,06,28,01,33,23.80
2021,06,28,01,34,23.80
2021,06,28,01,35,23.80
2021,06,28,01,36,23.80
2021,06,28,01,37,23.80
2021,06,28,01,38,23.80
2021,06,28,01,39,23.80
2021,06,28,01,40,23.80
2021,06,28,01,41,23.80
2021,06,28,01,42,23.80
2021,06,28,01,43,23.80
2021,06,28,01,44,23.80
2021,06,28,01,45,23.80
2021,06,28,01,46,23.80
2021,06,28,01,47,23.70
2021,06,28,01,48,23.70
2021,06,28,01,49,23.70
2021,06,28,01,50,23.70
2021,06,28,01,51,23.70
2021,06,28,01,52,23.70
2021,06,28,01,53,23.70
2021,06,28,01,54,23.70
2021,06,28,01,55,23.70
2021,06,28,01,56,23.70
2021,06,28,01,57,23.70
2021,06,28,01,58,23.70
2021,06,28,01,59,23.70
2021,06,28,02,00,23.70
2021,06,28,02,01,23.70
2021,06,28,02,02,23.70
2021,06,28,02,03,23.70
2021,06,28,02,04,23.70
2021,06,28,02,05,23.70
2021,06,28,02,06,23.60
2021,06,28,02,07,23.60
2021,06,28,02,08,23.60
2021,06,28,02,09,23.60
2021,06,28,02,10,23.50
2021,06,28,02,11,23.40
2021,06,28,02,12,23.40
2021,06,28,02,13,23.40
2021,06,28,02,14,23.40
2021,06,28,02,15,23.40
2021,06,28,02,16,23.30
2021,06,28,02,17,23.30
2021,06,28,02,18,23.30
2021,06,28,02,19,23.30
2021,06,28,02,20,23.30
2021,06,28,02,21,23.30
2021,06,28,02,22,23.30
2021,06,28,02,23,23.30
2021,06,28,02,24,23.30
2021,06,28,02,25,23.30
2021,06,28,02,26,23.30
2021,06,28,02,27,23.30
2021,06,28,02,28,23.30
2021,06,28,02,29,23.20
2021,06,28,02,30,23.20
2021,06,28,02,31,23.20
2021,06,28,02,32,23.20
2021,06,28,02,33,23.20
2021,06,28,02,34,23.20
2021,06,28,02,35,23.20
2021,06,28,02,36,23.20
2021,06,28,02,37,23.20
2021,06,28,02,38,23.20
2021,06,28,02,39,23.20
2021,06,28,02,40,23.20
2021,06,28,02,41,23.20
2021,06,28,02,42,23.20
2021,06,28,02,43,23.20
2021,06,28,02,44,23.20
2021,06,28,02,45,23.20
2021,06,28,02,46,23.20
2021,06,28,02,47,23.20
2021,06,28,02,48,23.20
2021,06,28,02,49,23.10
2021,06,28,02,50,23.10
2021,06,28,02,51,23.10
2021,06,28,02,52,23.10
2021,06,28,02,53,23.00
2021,06,28,02,54,22.90
2021,06,28,02,55,22.90
2021,06,28,02,56,22.80
2021,06,28,02,57,22.80
2021,06,28,02,58,22.60
2021,06,28,02,59,22.50
2021,06,28,03,00,22.40
2021,06,28,03,01,22.30
2021,06,28,03,02,22.20
2021,06,28,03,03,22.10
2021,06,28,03,04,22.00
2021,06,28,03,05,22.00
2021,06,28,03,06,21.90
2021,06,28,03,07,21.90
2021,06,28,03,08,21.90
2021,06,28,03,09,21.90
2021,06,28,03,10,21.90
2021,06,28,03,11,21.90
2021,06,28,03,12,21.80
2021,06,28,03,13,21.80
2021,06,28,03,14,21.70
2021,06,28,03,15,21.60
2021,06,28,03,16,21.60
2021,06,28,03,17,21.60
2021,06,28,03,18,21.60
2021,06,28,03,19,21.60
2021,06,28,03,20,21.60
2021,06,28,03,21,21.60
2021,06,28,03,22,21.60
2021,06,28,03,23,21.60
2021,06,28,03,24,21.60
2021,06,28,03,25,21.70
2021,06,28,03,26,21.80
2021,06,28,03,27,21.90
2021,06,28,03,28,21.90
2021,06,28,03,29,22.00
2021,06,28,03,30,22.00
2021,06,28,03,31,22.00
2021,06,28,03,32,22.00
2021,06,28,03,33,22.00
2021,06,28,03,34,22.00
2021,06,28,03,35,22.00
2021,06,28,03,36,22.00
2021,06,28,03,37,22.00
2021,06,28,03,38,22.00
2021,06,28,03,39,22.00
2021,06,28,03,40,22.00
2021,06,28,03,41,22.00
2021,06,28,03,42,21.90
2021,06,28,03,43,21.90
2021,06,28,03,44,21.80
2021,06,28,03,45,21.80
2021,06,28,03,46,21.70
2021,06,28,03,47,21.70
2021,06,28,03,48,21.70
2021,06,28,03,49,21.70
2021,06,28,03,50,21.60
2021,06,28,03,51,21.60
2021,06,28,03,52,21.60
2021,06,28,03,53,21.60
2021,06,28,03,54,21.60
2021,06,28,03,55,21.60
2021,06,28,03,56,21.60
2021,06,28,03,57,21.60
2021,06,28,03,58,21.60
2021,06,28,03,59,21.60
2021,06,28,04,00,21.60
2021,06,28,04,01,21.60
2021,06,28,04,02,21.60
2021,06,28,04,03,21.60
2021,06,28,04,04,21.60
2021,06,28,04,05,21.60
2021,06,28,04,06,21.60
2021,06,28,04,07,21.60
2021,06,28,04,08,21.60
2021,06,28,04,09,21.60
2021,06,28,04,10,21.60
2021,06,28,04,11,21.60
2021,06,28,04,12,21.60
2021,06,28,04,13,21.60
2021,06,28,04,14,21.60
2021,06,28,04,15,21.60
2021,06,28,04,16,21.60
2021,06,28,04,17,21.50
2021,06,28,04,18,21.40
2021,06,28,04,19,21.40
2021,06,28,04,20,21.40
2021,06,28,04,21,21.30
2021,06,28,04,22,21.30
2021,06,28,04,23,21.30
2021,06,28,04,24,21.30
2021,06,28,04,25,21.30
2021,06,28,04,26,21.30
2021,06,28,04,27,21.30
2021,06,28,04,28,21.20
2021,06,28,04,29,21.20
2021,06,28,04,30,21.20
2021,06,28,04,31,21.20
2021,06,28,04,32,21.20
2021,06,28,04,33,21.20
2021,06,28,04,34,21.20
2021,06,28,04,35,21.20
2021,06,28,04,36,21.20
2021,06,28,04,37,21.20
2021,06,28,04,38,21.20
2021,06,28,04,39,21.30
2021,06,28,04,40,21.30
2021,06,28,04,41,21.30
2021,06,28,04,42,21.30
2021,06,28,04,43,21.30
2021,06,28,04,44,21.30
2021,06,28,04,45,21.30
2021,06,28,04,46,21.30
2021,06,28,04,47,21.30
2021,06,28,04,48,21.30
2021,06,28,04,49,21.30
2021,06,28,04,50,21.30
2021,06,28,04,51,21.30
2021,06,28,04,52,21.30
2021,06,28,04,53,21.30
2021,06,28,04,54,21.30
2021,06,28,04,55,21.30
2021,06,28,04,56,21.30
2021,06,28,04,57,21.30
2021,06,28,04,58,21.30
2021,06,28,04,59,21.30
2021,06,28,05,00,21.30
2021,06,28,05,01,21.30
2021,06,28,05,02,21.30
2021,06,28,05,03,21.30
2021,06,28,05,04,21.30
2021,06,28,05,05,21.30
2021,06,28,05,06,21.30
2021,06,28,05,07,21.30
2021,06,28,05,08,21.40
2021,06,28,05,09,21.40
2021,06,28,05,10,21.40
2021,06,28,05,11,21.40
2021,06,28,05,12,21.40
2021,06,28,05,13,21.40
2021,06,28,05,14,21.50
2021,06,28,05,15,21.60
2021,06,28,05,16,21.60
2021,06,28,05,17,21.60
2021,06,28,05,18,21.50
2021,06,28,05,19,21.40
2021,06,28,05,20,21.50
2021,06,28,05,21,21.60
2021,06,28,05,22,21.60
2021,06,28,05,23,21.60
2021,06,28,05,24,21.60
2021,06,28,05,25,21.60
2021,06,28,05,26,21.60
2021,06,28,05,27,21.60
2021,06,28,05,28,21.60
2021,06,28,05,29,21.60
2021,06,28,05,30,21.60
2021,06,28,05,31,21.60
2021,06,28,05,32,21.60
2021,06,28,05,33,21.60
2021,06,28,05,34,21.60
2021,06,28,05,35,21.60
2021,06,28,05,36,21.60
2021,06,28,05,37,21.60
2021,06,28,05,38,21.60
2021,06,28,05,39,21.60
2021,06,28,05,40,21.60
2021,06,28,05,41,21.60
2021,06,28,05,42,21.60
2021,06,28,05,43,21.60
2021,06,28,05,44,21.70
2021,06,28,05,45,21.70
2021,06,28,05,46,21.70
2021,06,28,05,47,21.80
2021,06,28,05,48,21.80
2021,06,28,05,49,21.80
2021,06,28,05,50,21.90
2021,06,28,05,51,21.90
2021,06,28,05,52,21.90
2021,06,28,05,53,21.90
2021,06,28,05,54,21.90
2021,06,28,05,55,22.00
2021,06,28,05,56,22.00
2021,06,28,05,57,22.10
2021,06,28,05,58,22.10
2021,06,28,05,59,22.20
2021,06,28,06,00,22.30
2021,06,28,06,01,22.40
2021,06,28,06,02,22.50
2021,06,28,06,03,22.60
2021,06,28,06,04,22.70
2021,06,28,06,05,22.80
2021,06,28,06,06,23.00
2021,06,28,06,07,23.10
2021,06,28,06,08,23.30
2021,06,28,06,09,23.30
2021,06,28,06,10,23.40
2021,06,28,06,11,23.60
2021,06,28,06,12,23.60
2021,06,28,06,13,23.70
2021,06,28,06,14,23.80
2021,06,28,06,15,24.00
2021,06,28,06,16,24.10
2021,06,28,06,17,24.30
2021,06,28,06,18,24.50
2021,06,28,06,19,24.70
2021,06,28,06,20,24.90
2021,06,28,06,21,25.00
2021,06,28,06,22,25.10
2021,06,28,06,23,25.20
2021,06,28,06,24,25.30
2021,06,28,06,25,25.40
2021,06,28,06,26,25.40
2021,06,28,06,27,25.50
2021,06,28,06,28,25.60
2021,06,28,06,29,25.70
2021,06,28,06,30,25.80
2021,06,28,06,31,25.90
2021,06,28,06,32,26.00
2021,06,28,06,33,26.10
2021,06,28,06,34,26.20
2021,06,28,06,35,26.30
2021,06,28,06,36,26.40
2021,06,28,06,37,26.60
2021,06,28,06,38,26.60
2021,06,28,06,39,26.70
2021,06,28,06,40,26.80
2021,06,28,06,41,26.90
2021,06,28,06,42,26.90
2021,06,28,06,43,27.00
2021,06,28,06,44,27.10
2021,06,28,06,45,27.20
2021,06,28,06,46,27.30
2021,06,28,06,47,27.30
2021,06,28,06,48,27.30
2021,06,28,06,49,27.40
2021,06,28,06,50,27.50
2021,06,28,06,51,27.60
2021,06,28,06,52,27.70
2021,06,28,06,53,27.80
2021,06,28,06,54,27.90
2021,06,28,06,55,28.00
2021,06,28,06,56,28.00
2021,06,28,06,57,28.10
2021,06,28,06,58,28.30
2021,06,28,06,59,28.50
2021,06,28,07,00,28.70
2021,06,28,07,01,28.80
2021,06,28,07,02,28.90
2021,06,28,07,03,29.00
2021,06,28,07,04,29.20
2021,06,28,07,05,29.30
2021,06,28,07,06,29.40
2021,06,28,07,07,29.40
2021,06,28,07,08,29.50
2021,06,28,07,09,29.50
2021,06,28,07,10,29.60
2021,06,28,07,11,29.60
2021,06,28,07,12,29.70
2021,06,28,07,13,29.70
2021,06,28,07,14,29.80
2021,06,28,07,15,29.80
2021,06,28,07,16,29.80
2021,06,28,07,17,29.90
2021,06,28,07,18,29.90
2021,06,28,07,19,30.00
2021,06,28,07,20,30.10
2021,06,28,07,21,30.10
2021,06,28,07,22,30.20
2021,06,28,07,23,30.20
2021,06,28,07,24,30.30
2021,06,28,07,25,30.30
2021,06,28,07,26,30.30
2021,06,28,07,27,30.40
2021,06,28,07,28,30.50
2021,06,28,07,29,30.60
2021,06,28,07,30,30.60
2021,06,28,07,31,30.60
2021,06,28,07,32,30.70
2021,06,28,07,33,30.70
2021,06,28,07,34,30.70
2021,06,28,07,35,30.80
2021,06,28,07,36,30.80
2021,06,28,07,37,30.80
2021,06,28,07,38,30.80
2021,06,28,07,39,30.90
2021,06,28,07,40,30.90
2021,06,28,07,41,31.00
2021,06,28,07,42,31.00
2021,06,28,07,43,31.10
2021,06,28,07,44,31.10
2021,06,28,07,45,31.10
2021,06,28,07,46,31.20
2021,06,28,07,47,31.20
2021,06,28,07,48,31.30
2021,06,28,07,49,31.30
2021,06,28,07,50,31.40
2021,06,28,07,51,31.40
2021,06,28,07,52,31.40
2021,06,28,07,53,31.50
2021,06,28,07,54,31.60
2021,06,28,07,55,31.60
2021,06,28,07,56,31.60
2021,06,28,07,57,31.70
2021,06,28,07,58,31.70
2021,06,28,07,59,31.80
2021,06,28,08,00,31.80
2021,06,28,08,01,31.80
2021,06,28,08,02,31.90
2021,06,28,08,03,31.90
2021,06,28,08,04,31.90
2021,06,28,08,05,31.90
2021,06,28,08,06,32.10
2021,06,28,08,07,32.10
2021,06,28,08,08,32.10
2021,06,28,08,09,32.20
2021,06,28,08,10,32.20
2021,06,28,08,11,32.20
2021,06,28,08,12,32.30
2021,06,28,08,13,32.30
2021,06,28,08,14,32.40
2021,06,28,08,15,32.40
2021,06,28,08,16,32.50
2021,06,28,08,17,32.50
2021,06,28,08,18,32.50
2021,06,28,08,19,32.50
2021,06,28,08,20,32.60
2021,06,28,08,21,32.60
2021,06,28,08,22,32.60
2021,06,28,08,23,32.60
2021,06,28,08,24,32.70
2021,06,28,08,25,32.80
2021,06,28,08,26,32.80
2021,06,28,08,27,32.80
2021,06,28,08,28,32.90
2021,06,28,08,29,32.90
2021,06,28,08,30,32.90
2021,06,28,08,31,32.90
2021,06,28,08,32,33.00
2021,06,28,08,33,33.00
2021,06,28,08,34,33.00
2021,06,28,08,35,33.00
2021,06,28,08,36,33.00
2021,06,28,08,37,33.10
2021,06,28,08,38,33.10
2021,06,28,08,39,33.10
2021,06,28,08,40,33.20
2021,06,28,08,41,33.20
2021,06,28,08,42,33.20
2021,06,28,08,43,33.20
2021,06,28,08,44,33.20
2021,06,28,08,45,33.30
2021,06,28,08,46,33.40
2021,06,28,08,47,33.40
2021,06,28,08,48,33.40
2021,06,28,08,49,33.50
2021,06,28,08,50,33.50
2021,06,28,08,51,33.60
2021,06,28,08,52,33.60
2021,06,28,08,53,33.60
2021,06,28,08,54,33.60
2021,06,28,08,55,33.60
2021,06,28,08,56,33.60
2021,06,28,08,57,33.70
2021,06,28,08,58,33.70
2021,06,28,08,59,33.70
2021,06,28,09,00,33.80
2021,06,28,09,01,33.80
2021,06,28,09,02,33.80
2021,06,28,09,03,33.80
2021,06,28,09,04,34.00
2021,06,28,09,05,34.00
2021,06,28,09,06,34.10
2021,06,28,09,07,34.10
2021,06,28,09,08,34.20
2021,06,28,09,09,34.20
2021,06,28,09,10,34.20
2021,06,28,09,11,34.30
2021,06,28,09,12,34.30
2021,06,28,09,13,34.40
2021,06,28,09,14,34.40
2021,06,28,09,15,34.60
2021,06,28,09,16,34.60
2021,06,28,09,17,34.60
2021,06,28,09,18,34.60
2021,06,28,09,19,34.60
2021,06,28,09,20,34.60
2021,06,28,09,21,34.60
2021,06,28,09,22,34.60
2021,06,28,09,23,34.60
2021,06,28,09,24,34.70
2021,06,28,09,25,34.70
2021,06,28,09,26,34.70
2021,06,28,09,27,34.70
2021,06,28,09,28,34.80
2021,06,28,09,29,34.80
2021,06,28,09,30,34.80
2021,06,28,09,31,34.80
2021,06,28,09,32,34.80
2021,06,28,09,33,34.80
2021,06,28,09,34,34.80
2021,06,28,09,35,34.70
2021,06,28,09,36,34.50
2021,06,28,09,37,34.30
2021,06,28,09,38,34.10
2021,06,28,09,39,33.80
2021,06,28,09,40,33.60
2021,06,28,09,41,33.20
2021,06,28,09,42,32.90
2021,06,28,09,43,32.40
2021,06,28,09,44,31.90
2021,06,28,09,45,31.40
2021,06,28,09,46,31.00
2021,06,28,09,47,30.60
2021,06,28,09,48,30.30
2021,06,28,09,49,30.00
2021,06,28,09,50,29.80
2021,06,28,09,51,29.50
2021,06,28,09,52,29.30
2021,06,28,09,53,29.10
2021,06,28,09,54,28.80
2021,06,28,09,55,28.50
2021,06,28,09,56,28.40
2021,06,28,09,57,28.30
2021,06,28,09,58,28.30
2021,06,28,09,59,28.20
2021,06,28,10,00,28.10
2021,06,28,10,01,28.10
2021,06,28,10,02,28.10
2021,06,28,10,03,28.10
2021,06,28,10,04,28.20
2021,06,28,10,05,28.20
2021,06,28,10,06,28.30
2021,06,28,10,07,28.40
2021,06,28,10,08,28.50
2021,06,28,10,09,28.70
2021,06,28,10,10,28.80
2021,06,28,10,11,28.90
2021,06,28,10,12,28.90
2021,06,28,10,13,29.10
2021,06,28,10,14,29.20
2021,06,28,10,15,29.30
2021,06,28,10,16,29.40
2021,06,28,10,17,29.40
2021,06,28,10,18,29.50
2021,06,28,10,19,29.60
2021,06,28,10,20,29.60
2021,06,28,10,21,29.60
2021,06,28,10,22,29.70
2021,06,28,10,23,29.80
2021,06,28,10,24,30.20
2021,06,28,10,25,30.40
2021,06,28,10,26,30.80
2021,06,28,10,27,31.10
2021,06,28,10,28,31.50
2021,06,28,10,29,32.00
2021,06,28,10,30,32.30
2021,06,28,10,31,32.70
2021,06,28,10,32,33.00
2021,06,28,10,33,33.40
2021,06,28,10,34,33.70
2021,06,28,10,35,34.00
2021,06,28,10,36,34.20
2021,06,28,10,37,34.40
2021,06,28,10,38,34.40
2021,06,28,10,39,34.40
2021,06,28,10,40,34.40
2021,06,28,10,41,34.40
2021,06,28,10,42,34.30
2021,06,28,10,43,34.40
2021,06,28,10,44,34.50
2021,06,28,10,45,34.70
2021,06,28,10,46,34.80
2021,06,28,10,47,34.90
2021,06,28,10,48,35.00
2021,06,28,10,49,35.10
2021,06,28,10,50,35.20
2021,06,28,10,51,35.30
2021,06,28,10,52,35.30
2021,06,28,10,53,35.50
2021,06,28,10,54,35.50
2021,06,28,10,55,35.60
2021,06,28,10,56,35.70
2021,06,28,10,57,35.90
2021,06,28,10,58,35.90
2021,06,28,10,59,36.00
2021,06,28,11,00,36.00
2021,06,28,11,01,36.00
2021,06,28,11,02,36.00
2021,06,28,11,03,36.00
2021,06,28,11,04,36.00
2021,06,28,11,05,36.00
2021,06,28,11,06,35.90
2021,06,28,11,07,36.00
2021,06,28,11,08,36.00
2021,06,28,11,09,36.20
2021,06,28,11,10,36.20
2021,06,28,11,11,36.20
2021,06,28,11,12,36.30
2021,06,28,11,13,36.30
2021,06,28,11,14,36.30
2021,06,28,11,15,36.30
2021,06,28,11,16,36.30
2021,06,28,11,17,36.20
2021,06,28,11,18,36.30
2021,06,28,11,19,36.30
2021,06,28,11,20,36.30
2021,06,28,11,21,36.30
2021,06,28,11,22,36.30
2021,06,28,11,23,36.30
2021,06,28,11,24,36.30
2021,06,28,11,25,36.40
2021,06,28,11,26,36.40
2021,06,28,11,27,36.40
2021,06,28,11,28,36.40
2021,06,28,11,29,36.60
2021,06,28,11,30,36.60
2021,06,28,11,31,36.70
2021,06,28,11,32,36.60
2021,06,28,11,33,36.60
2021,06,28,11,34,36.50
2021,06,28,11,35,36.40
2021,06,28,11,36,36.40
2021,06,28,11,37,36.40
2021,06,28,11,38,36.40
2021,06,28,11,39,36.40
2021,06,28,11,40,36.40
2021,06,28,11,41,36.40
2021,06,28,11,42,36.40
2021,06,28,11,43,36.30
2021,06,28,11,44,36.30
2021,06,28,11,45,36.30
2021,06,28,11,46,36.30
2021,06,28,11,47,36.30
2021,06,28,11,48,36.40
2021,06,28,11,49,36.50
2021,06,28,11,50,36.60
2021,06,28,11,51,36.60
2021,06,28,11,52,36.70
2021,06,28,11,53,36.70
2021,06,28,11,54,36.80
2021,06,28,11,55,36.80
2021,06,28,11,56,36.80
2021,06,28,11,57,36.80
2021,06,28,11,58,36.80
2021,06,28,11,59,36.80
2021,06,28,12,00,36.80
2021,06,28,12,01,36.80
2021,06,28,12,02,36.80
2021,06,28,12,03,36.80
2021,06,28,12,04,36.80
2021,06,28,12,05,36.90
2021,06,28,12,06,36.90
2021,06,28,12,07,36.90
2021,06,28,12,08,36.80
2021,06,28,12,09,36.80
2021,06,28,12,10,36.80
2021,06,28,12,11,36.80
2021,06,28,12,12,36.80
2021,06,28,12,13,36.80
2021,06,28,12,14,36.80
2021,06,28,12,15,36.80
2021,06,28,12,16,36.80
2021,06,28,12,17,36.90
2021,06,28,12,18,36.90
2021,06,28,12,19,36.90
2021,06,28,12,20,36.90
2021,06,28,12,21,36.90
2021,06,28,12,22,36.90
2021,06,28,12,23,36.90
2021,06,28,12,24,36.90
2021,06,28,12,25,36.90
2021,06,28,12,26,36.90
2021,06,28,12,27,36.90
2021,06,28,12,28,37.00
2021,06,28,12,29,37.10
2021,06,28,12,30,37.00
2021,06,28,12,31,36.90
2021,06,28,12,32,37.00
2021,06,28,12,33,37.10
2021,06,28,12,34,37.10
2021,06,28,12,35,37.10
2021,06,28,12,36,37.20
2021,06,28,12,37,37.20
2021,06,28,12,38,37.30
2021,06,28,12,39,37.40
2021,06,28,12,40,37.40
2021,06,28,12,41,37.40
2021,06,28,12,42,37.40
2021,06,28,12,43,37.40
2021,06,28,12,44,37.40
2021,06,28,12,45,37.60
2021,06,28,12,46,37.60
2021,06,28,12,47,37.60
2021,06,28,12,48,37.60
2021,06,28,12,49,37.60
2021,06,28,12,50,37.60
2021,06,28,12,51,37.60
2021,06,28,12,52,37.60
2021,06,28,12,53,37.60
2021,06,28,12,54,37.60
2021,06,28,12,55,37.60
2021,06,28,12,56,37.70
2021,06,28,12,57,37.60
2021,06,28,12,58,37.60
2021,06,28,12,59,37.60
2021,06,28,13,00,37.60
2021,06,28,13,01,37.50
2021,06,28,13,02,37.60
2021,06,28,13,03,37.60
2021,06,28,13,04,37.60
2021,06,28,13,05,37.60
2021,06,28,13,06,37.60
2021,06,28,13,07,37.60
2021,06,28,13,08,37.60
2021,06,28,13,09,37.60
2021,06,28,13,10,37.60
2021,06,28,13,11,37.70
2021,06,28,13,12,37.80
2021,06,28,13,13,37.90
2021,06,28,13,14,38.00
2021,06,28,13,15,38.00
2021,06,28,13,16,38.00
2021,06,28,13,17,38.00
2021,06,28,13,18,38.00
2021,06,28,13,19,38.00
2021,06,28,13,20,38.00
2021,06,28,13,21,38.00
2021,06,28,13,22,38.10
2021,06,28,13,23,38.20
2021,06,28,13,24,38.20
2021,06,28,13,25,38.30
2021,06,28,13,26,38.20
2021,06,28,13,27,38.20
2021,06,28,13,28,38.20
2021,06,28,13,29,38.20
2021,06,28,13,30,38.20
2021,06,28,13,31,38.20
2021,06,28,13,32,38.20
2021,06,28,13,33,38.20
2021,06,28,13,34,38.20
2021,06,28,13,35,38.30
2021,06,28,13,36,38.30
2021,06,28,13,37,38.40
2021,06,28,13,38,38.50
2021,06,28,13,39,38.60
2021,06,28,13,40,38.70
2021,06,28,13,41,38.70
2021,06,28,13,42,38.70
2021,06,28,13,43,38.70
2021,06,28,13,44,38.70
2021,06,28,13,45,38.70
2021,06,28,13,46,38.70
2021,06,28,13,47,38.70
2021,06,28,13,48,38.70
2021,06,28,13,49,38.70
2021,06,28,13,50,38.70
2021,06,28,13,51,38.70
2021,06,28,13,52,38.70
2021,06,28,13,53,38.70
2021,06,28,13,54,38.70
2021,06,28,13,55,38.60
2021,06,28,13,56,38.60
2021,06,28,13,57,38.70
2021,06,28,13,58,38.70
2021,06,28,13,59,38.90
2021,06,28,14,00,38.90
2021,06,28,14,01,38.90
2021,06,28,14,02,38.90
2021,06,28,14,03,38.80
2021,06,28,14,04,38.70
2021,06,28,14,05,38.70
2021,06,28,14,06,38.80
2021,06,28,14,07,38.90
2021,06,28,14,08,39.00
2021,06,28,14,09,39.10
2021,06,28,14,10,39.10
2021,06,28,14,11,39.20
2021,06,28,14,12,39.20
2021,06,28,14,13,39.20
2021,06,28,14,14,39.20
2021,06,28,14,15,39.20
2021,06,28,14,16,39.20
2021,06,28,14,17,39.20
2021,06,28,14,18,39.20
2021,06,28,14,19,39.30
2021,06,28,14,20,39.30
2021,06,28,14,21,39.30
2021,06,28,14,22,39.30
2021,06,28,14,23,39.30
2021,06,28,14,24,39.30
2021,06,28,14,25,39.20
2021,06,28,14,26,39.10
2021,06,28,14,27,39.10
2021,06,28,14,28,39.10
2021,06,28,14,29,39.10
2021,06,28,14,30,39.10
2021,06,28,14,31,39.10
2021,06,28,14,32,39.10
2021,06,28,14,33,39.10
2021,06,28,14,34,39.10
2021,06,28,14,35,39.10
2021,06,28,14,36,39.10
2021,06,28,14,37,39.20
2021,06,28,14,38,39.20
2021,06,28,14,39,39.20
2021,06,28,14,40,39.30
2021,06,28,14,41,39.50
2021,06,28,14,42,39.50
2021,06,28,14,43,39.50
2021,06,28,14,44,39.60
2021,06,28,14,45,39.60
2021,06,28,14,46,39.60
2021,06,28,14,47,39.60
2021,06,28,14,48,39.60
2021,06,28,14,49,39.60
2021,06,28,14,50,39.60
2021,06,28,14,51,39.60
2021,06,28,14,52,39.60
2021,06,28,14,53,39.60
2021,06,28,14,54,39.60
2021,06,28,14,55,39.50
2021,06,28,14,56,39.50
2021,06,28,14,57,39.60
2021,06,28,14,58,39.60
2021,06,28,14,59,39.60
2021,06,28,15,00,39.80
2021,06,28,15,01,39.80
2021,06,28,15,02,39.80
2021,06,28,15,03,39.70
2021,06,28,15,04,39.60
2021,06,28,15,05,39.60
2021,06,28,15,06,39.60
2021,06,28,15,07,39.60
2021,06,28,15,08,39.60
2021,06,28,15,09,39.40
2021,06,28,15,10,39.30
2021,06,28,15,11,39.20
2021,06,28,15,12,39.20
2021,06,28,15,13,39.30
2021,06,28,15,14,39.30
2021,06,28,15,15,39.20
2021,06,28,15,16,39.20
2021,06,28,15,17,39.30
2021,06,28,15,18,39.30
2021,06,28,15,19,39.30
2021,06,28,15,20,39.30
2021,06,28,15,21,39.50
2021,06,28,15,22,39.50
2021,06,28,15,23,39.50
2021,06,28,15,24,39.50
2021,06,28,15,25,39.50
2021,06,28,15,26,39.60
2021,06,28,15,27,39.60
2021,06,28,15,28,39.60
2021,06,28,15,29,39.60
2021,06,28,15,30,39.80
2021,06,28,15,31,39.80
2021,06,28,15,32,39.80
2021,06,28,15,33,39.80
2021,06,28,15,34,39.80
2021,06,28,15,35,39.90
2021,06,28,15,36,39.90
2021,06,28,15,37,39.90
2021,06,28,15,38,40.00
2021,06,28,15,39,40.10
2021,06,28,15,40,40.10
2021,06,28,15,41,40.00
2021,06,28,15,42,39.90
2021,06,28,15,43,39.90
2021,06,28,15,44,39.90
2021,06,28,15,45,40.00
2021,06,28,15,46,40.10
2021,06,28,15,47,40.10
2021,06,28,15,48,40.10
2021,06,28,15,49,40.10
2021,06,28,15,50,40.10
2021,06,28,15,51,40.10
2021,06,28,15,52,40.10
2021,06,28,15,53,40.10
2021,06,28,15,54,40.20
2021,06,28,15,55,40.20
2021,06,28,15,56,40.20
2021,06,28,15,57,40.30
2021,06,28,15,58,40.30
2021,06,28,15,59,40.30
2021,06,28,16,00,40.30
2021,06,28,16,01,40.20
2021,06,28,16,02,40.20
2021,06,28,16,03,40.20
2021,06,28,16,04,40.30
2021,06,28,16,05,40.30
2021,06,28,16,06,40.30
2021,06,28,16,07,40.50
2021,06,28,16,08,40.50
2021,06,28,16,09,40.50
2021,06,28,16,10,40.60
2021,06,28,16,11,40.70
2021,06,28,16,12,40.80
2021,06,28,16,13,40.80
2021,06,28,16,14,40.80
2021,06,28,16,15,40.90
2021,06,28,16,16,40.90
2021,06,28,16,17,40.90
2021,06,28,16,18,40.90
2021,06,28,16,19,40.90
2021,06,28,16,20,40.90
2021,06,28,16,21,40.90
2021,06,28,16,22,40.90
2021,06,28,16,23,40.90
2021,06,28,16,24,41.00
2021,06,28,16,25,41.10
2021,06,28,16,26,41.10
2021,06,28,16,27,41.10
2021,06,28,16,28,41.00
2021,06,28,16,29,40.90
2021,06,28,16,30,40.90
2021,06,28,16,31,40.90
2021,06,28,16,32,40.90
2021,06,28,16,33,40.90
2021,06,28,16,34,40.90
2021,06,28,16,35,40.90
2021,06,28,16,36,40.90
2021,06,28,16,37,40.80
2021,06,28,16,38,40.80
2021,06,28,16,39,40.70
2021,06,28,16,40,40.60
2021,06,28,16,41,40.60
2021,06,28,16,42,40.60
2021,06,28,16,43,40.50
2021,06,28,16,44,40.50
2021,06,28,16,45,40.40
2021,06,28,16,46,40.30
2021,06,28,16,47,40.30
2021,06,28,16,48,40.50
2021,06,28,16,49,40.50
2021,06,28,16,50,40.50
2021,06,28,16,51,40.60
2021,06,28,16,52,40.60
2021,06,28,16,53,40.60
2021,06,28,16,54,40.70
2021,06,28,16,55,40.80
2021,06,28,16,56,40.80
2021,06,28,16,57,40.80
2021,06,28,16,58,40.80
2021,06,28,16,59,40.80
2021,06,28,17,00,40.80
2021,06,28,17,01,40.90
2021,06,28,17,02,41.00
2021,06,28,17,03,41.10
2021,06,28,17,04,41.10
2021,06,28,17,05,41.10
2021,06,28,17,06,41.10
2021,06,28,17,07,41.10
2021,06,28,17,08,41.00
2021,06,28,17,09,40.90
2021,06,28,17,10,40.80
2021,06,28,17,11,40.80
2021,06,28,17,12,40.70
2021,06,28,17,13,40.60
2021,06,28,17,14,40.60
2021,06,28,17,15,40.60
2021,06,28,17,16,40.60
2021,06,28,17,17,40.50
2021,06,28,17,18,40.50
2021,06,28,17,19,40.50